Snowfall_Accumulation
0.0 0.0 0.0 0.0 0.0 0.0 0.0 0.0 0.0 0.0 0.0 0.0 0.0 0.0 0.0 0.0 0.0 0.0 0.0 0.0 0.5 0.5 0.0 0.0 0.0 0.0 0.0 0.0 0.0 0.0 0.1 0.2 1.8 0.1 0.0 0.0 0.0 0.0 0.0 0.0 0.0 0.0 0.0
0.0 0.0 0.0 0.0 0.0 0.0 0.0 0.0 0.0 0.0 0.0 0.0 0.0 0.0 0.0 0.0 0.0 0.0 0.0 0.8 0.8 0.0 0.0 0.0 0.0 0.5 0.9 0.0 0.1 0.1 0.1 0.1 0.6 1.0 0.0 0.0 0.0 0.0 0.0 0.0 0.0 0.0 0.0
0.0 0.0 0.0 0.0 0.0 0.0 0.0 0.0 0.0 0.0 0.0 0.0 0.0 0.0 0.0 0.0 0.0 0.0 0.0 0.0 0.0 0.0 0.0 0.0 0.0 0.6 1.0 1.0 0.1 0.1 0.3 0.1 0.2 0.7 0.4 0.0 0.0 0.0 0.0 0.0 0.0 0.0 0.0
0.0 0.0 0.0 0.0 0.0 0.0 0.0 0.0 0.0 0.0 0.0 0.0 0.0 0.0 0.0 0.0 0.0 0.0 0.0 0.0 0.0 0.0 0.0 0.0 0.0 0.0 0.9 0.9 0.9 1.0 1.0 1.7 1.1 0.5 0.4 0.1 0.0 0.0 0.0 0.0 0.1 0.0 0.0
0.0 0.0 0.0 0.0 0.0 0.2 0.8 1.0 0.9 0.8 0.0 0.0 0.0 0.3 0.0 0.0 0.0 0.0 0.0 1.1 0.8 0.0 0.0 0.0 0.0 0.0 nan nan 1.7 1.7 1.5 2.5 3.2 3.3 0.7 0.3 0.1 0.1 0.1 0.0 0.4 0.3 0.2
0.0 0.0 0.0 1.5 1.8 1.9 1.8 1.3 0.9 0.8 0.8 0.9 0.8 0.8 0.8 0.0 nan nan 0.1 1.0 1.1 0.0 0.1 0.0 0.0 0.0 0.0 nan nan nan nan 4.1 10.2 9.3 0.9 0.6 0.1 0.1 0.0 0.1 0.2 0.4 1.1
2.1 3.0 2.6 2.2 2.0 1.7 1.4 1.2 1.0 1.0 1.0 0.9 0.8 0.8 0.8 0.8 nan nan nan 1.2 1.2 0.1 0.0 0.0 0.0 0.0 0.0 0.0 nan nan nan nan nan 0.7 2.0 0.5 0.3 0.1 0.1 0.2 0.3 0.6 0.6
2.5 3.4 2.5 1.6 2.8 1.6 1.4 1.4 1.1 1.0 1.2 1.0 1.2 1.1 0.9 0.8 nan nan nan 1.0 1.0 0.0 0.0 0.0 0.1 0.1 0.1 0.1 0.4 2.0 1.3 1.2 0.6 0.3 0.4 0.4 0.2 0.1 0.2 0.4 0.9 1.7 1.5
1.0 1.5 1.6 2.2 3.2 1.8 3.9 1.9 1.5 2.5 1.9 3.0 3.1 4.4 3.6 3.5 nan nan 2.1 3.1 2.2 1.7 0.0 0.0 0.1 0.2 nan nan 2.3 4.1 2.6 1.5 nan nan nan nan nan nan nan 6.3 15.1 16.6 8.9
0.9 0.9 1.1 2.1 4.5 3.7 2.2 3.3 3.8 3.6 3.4 4.2 3.9 3.5 0.9 4.9 nan nan nan 7.9 7.2 4.6 2.6 0.1 0.0 0.0 nan nan 2.5 3.7 5.2 2.0 1.3 3.7 1.1 0.9 nan nan nan 0.7 5.5 16.0 7.9
1.6 1.7 1.9 2.2 4.8 3.1 3.6 3.1 4.3 4.8 2.7 4.5 4.2 3.3 3.7 2.1 2.4 nan nan 4.8 6.9 8.3 6.9 4.4 2.3 nan nan nan nan 3.4 3.7 2.8 6.1 4.7 3.4 3.2 1.8 1.2 1.9 1.4 0.8 2.9 6.1
2.2 2.5 3.2 5.2 5.0 5.1 8.7 5.5 7.3 6.5 6.3 5.5 5.7 4.6 4.1 1.9 nan nan nan nan nan 12.3 6.3 2.9 2.7 nan nan nan 2.0 nan nan 1.7 9.9 10.6 8.6 6.4 3.6 3.2 1.8 1.6 0.5 1.0 1.1
5.4 7.5 7.5 6.7 6.7 6.8 9.6 6.2 8.7 7.4 8.6 4.9 6.5 6.0 4.0 3.6 3.8 nan nan nan nan 6.5 4.9 3.0 nan nan nan nan nan nan 0.2 6.2 8.5 10.2 7.0 3.5 1.9 1.5 0.9 1.6 0.5 1.1 0.7
10.1 5.4 4.4 5.6 4.2 5.5 7.6 8.7 12.1 9.1 7.1 7.9 9.3 8.8 5.4 5.0 3.8 4.3 8.4 5.7 1.9 6.1 nan 4.7 nan 2.4 nan nan 1.9 2.5 4.0 4.2 4.6 5.9 4.5 1.9 1.9 2.4 3.1 2.5 4.4 3.9 7.3
7.2 4.0 5.6 7.9 8.7 5.0 4.3 7.2 5.8 3.7 8.4 13.0 15.8 10.2 10.5 11.0 9.2 5.0 10.8 11.8 11.8 10.5 7.1 12.7 9.6 4.4 3.8 3.4 4.9 3.7 3.6 4.1 4.5 5.2 5.4 4.8 4.3 4.1 4.1 3.2 4.0 5.7 7.3
4.1 6.0 5.8 5.8 5.0 4.4 4.4 4.2 nan nan nan nan nan 10.0 13.9 nan nan nan nan nan nan nan 17.5 19.9 8.8 7.0 4.6 5.1 6.2 5.3 4.7 3.7 4.0 4.9 5.6 5.6 5.7 5.3 5.6 5.6 5.4 6.7 7.3
6.9 4.5 5.9 4.6 4.7 5.5 5.6 6.6 7.6 4.5 nan nan nan nan nan nan nan nan nan nan nan nan 30.9 15.8 12.3 7.6 6.9 4.6 6.3 5.4 5.4 4.7 2.5 4.8 4.9 5.6 7.1 7.6 7.2 6.6 6.1 5.3 8.0
6.8 1.8 7.2 6.8 6.4 6.5 7.0 7.2 7.5 8.9 10.3 8.5 nan nan nan nan nan nan nan nan 21.7 nan 24.8 24.5 19.7 15.2 10.3 8.6 6.4 6.0 6.0 5.9 5.3 6.3 7.0 11.5 13.0 13.6 11.8 11.7 8.3 10.3 9.9
7.3 6.0 6.7 6.7 6.4 6.7 7.4 6.3 7.0 6.7 7.0 9.6 9.0 8.6 5.1 nan nan nan nan 13.8 22.8 21.7 21.9 22.8 17.8 14.9 11.2 12.8 12.2 14.5 12.3 13.2 12.7 16.9 16.9 18.9 16.8 17.1 16.2 11.2 8.3 5.0 5.5
7.7 3.1 5.8 9.9 8.1 7.2 5.2 6.8 6.2 6.7 7.5 9.2 9.9 8.7 15.2 13.9 21.2 21.9 18.0 26.4 25.3 22.8 19.6 22.0 21.4 22.9 23.4 21.8 21.8 20.3 20.2 21.1 19.0 20.6 20.6 19.8 17.8 18.6 10.7 15.6 13.1 9.9 11.7
13.5 11.5 2.3 9.3 11.9 12.3 12.3 9.4 7.3 10.3 9.1 11.7 9.0 8.8 nan 13.9 16.1 18.5 21.7 18.6 23.2 25.8 20.6 23.1 23.2 31.0 32.0 35.9 29.1 27.9 26.0 14.9 20.3 23.1 24.9 25.0 23.2 27.4 15.3 8.6 13.8 14.6 13.2
14.9 15.8 15.7 16.3 10.8 11.0 13.0 8.3 9.3 9.6 9.0 7.4 5.7 6.2 nan 6.7 9.7 11.0 12.6 18.3 24.1 23.5 27.3 33.3 32.4 36.1 31.4 28.9 25.7 23.6 19.3 24.4 27.3 25.3 19.6 21.1 25.1 20.6 19.4 11.8 12.1 9.8 13.9
12.1 10.3 11.2 11.0 10.4 5.6 11.7 14.3 11.9 11.2 9.5 11.2 9.5 7.7 8.9 15.4 12.7 11.8 20.2 22.9 16.7 15.1 18.1 19.9 18.6 18.4 16.8 20.6 17.9 17.7 19.7 23.7 25.3 34.2 22.0 23.5 23.0 26.5 22.4 18.4 15.3 16.3 14.9
10.7 10.8 10.3 14.5 12.3 9.5 12.0 13.0 10.4 5.4 10.9 11.8 20.5 16.8 8.4 11.9 19.1 12.1 13.5 17.3 13.7 27.7 18.1 19.9 15.1 14.9 17.7 29.7 39.0 38.2 41.5 43.7 41.7 38.0 33.8 22.0 22.5 18.1 18.1 20.1 14.8 12.5 10.7
13.8 11.1 11.2 10.0 17.3 12.8 11.7 14.9 9.2 13.9 16.8 12.4 16.9 10.3 10.4 9.3 11.3 19.6 17.9 13.9 16.5 15.3 12.6 12.5 13.4 14.2 14.7 15.9 23.8 31.6 31.8 4.2 20.4 4.6 28.8 19.3 24.8 26.0 24.3 19.0 17.2 13.6 10.8
10.7 11.4 11.7 12.1 11.5 13.0 13.7 13.2 13.8 10.1 13.8 14.9 13.2 13.5 11.1 11.1 11.7 15.7 14.3 14.4 11.0 11.8 12.8 14.5 14.4 12.4 11.5 13.5 14.5 6.5 3.9 3.4 23.7 3.9 22.6 18.3 22.8 21.9 21.6 21.6 19.6 17.1 13.0
Water_Equivalent
0.00 0.00 0.00 0.00 0.00 0.00 0.00 0.00 0.00 0.00 0.00 0.00 0.00 0.00 0.00 0.00 0.00 0.00 0.00 0.00 0.05 0.05 0.00 0.00 0.00 0.00 0.00 0.00 0.01 0.01 0.02 0.02 0.20 0.02 0.00 0.00 0.00 0.00 0.00 0.00 0.00 0.00 0.00
0.00 0.00 0.00 0.00 0.00 0.00 0.00 0.00 0.00 0.00 0.00 0.00 0.00 0.00 0.00 0.00 0.00 0.00 0.00 0.08 0.08 0.00 0.00 0.00 0.00 0.05 0.09 0.01 0.01 0.01 0.01 0.01 0.07 0.10 0.00 0.00 0.00 0.00 0.00 0.00 0.00 0.00 0.00
0.00 0.00 0.00 0.00 0.00 0.00 0.00 0.00 0.00 0.00 0.00 0.00 0.00 0.00 0.00 0.00 0.00 0.00 0.00 0.00 0.00 0.00 0.00 0.00 0.00 0.06 0.10 0.10 0.01 0.01 0.04 0.01 0.03 0.08 0.05 0.00 0.00 0.00 0.00 0.00 0.00 0.00 0.00
0.00 0.00 0.00 0.00 0.00 0.00 0.00 0.00 0.00 0.00 0.00 0.00 0.00 0.00 0.00 0.00 0.00 0.00 0.00 0.00 0.00 0.00 0.00 0.00 0.00 0.00 0.09 0.09 0.09 0.10 0.10 0.17 0.12 0.06 0.05 0.01 0.00 0.00 0.00 0.01 0.02 0.00 0.00
0.00 0.00 0.00 0.00 0.00 0.02 0.08 0.10 0.09 0.08 0.00 0.00 0.00 0.03 0.00 0.00 0.00 0.00 0.00 0.11 0.08 0.00 0.00 0.00 0.00 0.01 nan nan 0.17 0.17 0.15 0.24 0.31 0.33 0.06 0.03 0.01 0.01 0.01 0.01 0.05 0.04 0.04
0.00 0.00 0.00 0.15 0.18 0.19 0.18 0.13 0.09 0.08 0.08 0.09 0.08 0.08 0.08 0.00 nan nan 0.01 0.10 0.11 0.00 0.01 0.00 0.00 0.00 0.00 nan nan nan nan 0.41 1.00 0.93 0.08 0.05 0.01 0.01 0.01 0.02 0.05 0.08 0.17
0.21 0.30 0.26 0.22 0.20 0.17 0.14 0.12 0.10 0.10 0.10 0.09 0.08 0.08 0.08 0.08 nan nan nan 0.12 0.12 0.01 0.00 0.00 0.00 0.00 0.01 0.01 nan nan nan nan nan 0.08 0.19 0.05 0.03 0.01 0.01 0.04 0.06 0.15 0.14
0.25 0.34 0.25 0.16 0.29 0.16 0.14 0.14 0.11 0.10 0.12 0.10 0.12 0.11 0.09 0.08 nan nan nan 0.10 0.10 0.00 0.00 0.00 0.01 0.01 0.01 0.02 0.05 0.20 0.14 0.12 0.06 0.03 0.04 0.04 0.02 0.01 0.02 0.06 0.14 0.29 0.24
0.10 0.15 0.16 0.23 0.32 0.17 0.38 0.18 0.14 0.24 0.18 0.30 0.31 0.45 0.37 0.35 nan nan 0.21 0.31 0.22 0.17 0.00 0.00 0.01 0.02 nan nan 0.23 0.41 0.26 0.15 nan nan nan nan nan nan nan 0.79 1.93 2.11 1.15
0.09 0.09 0.11 0.21 0.45 0.36 0.21 0.31 0.37 0.36 0.34 0.42 0.39 0.35 0.11 0.49 nan nan nan 0.79 0.72 0.46 0.26 0.01 0.01 0.00 nan nan 0.25 0.37 0.50 0.20 0.14 0.38 0.12 0.10 nan nan nan 0.09 0.75 1.92 1.10
0.16 0.16 0.19 0.21 0.47 0.30 0.36 0.30 0.43 0.47 0.26 0.44 0.41 0.33 0.37 0.22 0.24 nan nan 0.48 0.69 0.82 0.69 0.44 0.23 nan nan nan nan 0.34 0.37 0.28 0.62 0.48 0.37 0.37 0.21 0.15 0.23 0.18 0.11 0.41 0.87
0.21 0.24 0.31 0.50 0.48 0.49 0.86 0.53 0.72 0.64 0.62 0.54 0.57 0.46 0.41 0.19 nan nan nan nan nan 1.24 0.62 0.29 0.27 nan nan nan 0.23 nan nan 0.20 1.02 1.13 0.96 0.71 0.43 0.38 0.22 0.20 0.06 0.13 0.15
0.53 0.73 0.74 0.65 0.66 0.66 0.96 0.61 0.86 0.73 0.86 0.49 0.65 0.60 0.40 0.36 0.38 nan nan nan nan 0.66 0.49 0.29 nan nan nan nan nan nan 0.08 0.66 0.90 1.05 0.71 0.40 0.23 0.19 0.11 0.21 0.07 0.14 0.09
1.00 0.52 0.41 0.53 0.43 0.52 0.75 0.87 1.22 0.91 0.71 0.79 0.94 0.88 0.54 0.50 0.38 0.43 0.85 0.58 0.24 0.61 nan 0.46 nan 0.24 nan nan 0.21 0.25 0.40 0.44 0.48 0.60 0.51 0.23 0.23 0.30 0.38 0.32 0.55 0.50 0.94
0.68 0.37 0.52 0.76 0.84 0.47 0.42 0.71 0.58 0.36 0.83 1.31 1.61 1.02 1.06 1.11 0.93 0.50 1.09 1.18 1.19 1.04 0.82 1.27 0.96 0.44 0.37 0.34 0.49 0.37 0.35 0.42 0.47 0.57 0.60 0.56 0.52 0.51 0.51 0.41 0.50 0.73 0.91
0.36 0.57 0.56 0.57 0.49 0.43 0.43 0.40 nan nan nan nan nan 1.00 1.41 nan nan nan nan nan nan nan 1.84 2.00 0.86 0.68 0.44 0.49 0.60 0.51 0.45 0.39 0.41 0.52 0.62 0.64 0.66 0.63 0.68 0.70 0.69 0.86 0.89
0.67 0.43 0.57 0.47 0.45 0.53 0.54 0.64 0.74 0.44 nan nan nan nan nan nan nan nan nan nan nan nan 3.17 1.58 1.21 0.74 0.66 0.42 0.58 0.49 0.48 0.44 0.23 0.47 0.49 0.60 0.78 0.89 0.88 0.83 0.77 0.67 1.01
0.65 0.59 0.68 0.64 0.60 0.63 0.68 0.71 0.75 0.88 1.02 0.83 nan nan nan nan nan nan nan nan 2.21 nan 2.52 2.47 1.97 1.50 0.98 0.79 0.58 0.52 0.52 0.52 0.47 0.60 0.66 1.16 1.38 1.50 1.36 1.40 1.03 1.30 1.25
0.69 0.57 0.65 0.65 0.62 0.66 0.73 0.61 0.69 0.66 0.68 0.94 0.88 0.85 0.79 nan nan nan nan 1.40 2.32 2.20 2.22 2.31 1.78 1.46 1.07 1.23 1.16 1.39 1.14 1.22 1.17 1.62 1.65 1.89 1.75 1.83 1.82 1.31 0.98 0.74 0.77
0.74 0.74 0.72 0.96 0.77 0.68 0.48 0.65 0.58 0.62 0.69 0.88 0.96 0.84 1.50 1.56 2.13 2.23 1.83 2.70 2.58 2.32 1.99 2.23 2.16 2.31 2.35 2.17 2.16 2.00 1.96 2.06 1.83 1.97 1.96 1.93 1.83 2.00 1.15 1.82 1.55 1.17 1.47
1.24 1.02 0.76 0.84 1.10 1.15 1.16 0.86 0.65 0.97 0.86 1.12 0.85 0.84 nan 1.38 1.61 1.87 2.20 1.88 2.35 2.63 2.09 2.35 2.35 3.17 3.28 3.70 2.97 2.82 2.59 1.43 1.98 2.24 2.41 2.43 2.32 2.91 1.69 0.94 1.62 1.79 1.66
1.32 1.42 1.41 1.48 0.93 0.95 1.17 0.72 0.82 0.85 0.80 0.66 0.49 0.58 nan 0.66 0.97 1.10 1.27 1.86 2.46 2.39 2.79 3.40 3.31 3.70 3.19 2.92 2.56 2.37 1.90 2.44 2.74 2.50 1.87 2.01 2.45 2.09 2.12 1.33 1.42 1.17 1.75
1.04 0.84 0.94 0.92 0.88 1.29 1.02 1.30 1.07 1.02 0.87 1.06 0.91 0.74 0.88 1.55 1.28 1.18 2.05 2.33 1.69 1.52 1.84 2.01 1.88 1.85 1.69 2.08 1.78 1.74 1.92 2.30 2.43 3.40 2.06 2.23 2.16 2.61 2.33 2.00 1.74 1.92 1.85
0.90 0.93 0.90 1.34 1.12 0.83 1.10 1.20 0.94 1.37 1.03 1.14 2.07 1.69 0.84 1.20 1.94 1.22 1.36 1.75 1.38 2.83 1.83 2.01 1.52 1.49 1.79 3.04 4.05 3.96 4.33 4.57 4.26 3.83 3.36 2.05 2.05 1.83 1.74 2.14 1.63 1.55 1.23
1.22 0.97 1.00 0.89 1.64 1.19 1.08 1.40 0.85 1.34 1.66 1.23 1.69 1.04 1.04 0.93 1.13 1.98 1.81 1.40 1.66 1.54 1.27 1.26 1.35 1.43 1.48 1.60 2.42 3.25 3.47 1.37 2.45 1.51 2.85 1.80 2.29 2.37 2.23 1.88 1.75 1.40 1.20
0.94 1.01 1.05 1.10 1.05 1.22 1.31 1.27 1.35 0.97 1.37 1.49 1.33 1.36 1.12 1.12 1.17 1.58 1.44 1.45 1.11 1.19 1.29 1.46 1.46 1.25 1.16 1.35 1.46 1.59 1.28 1.11 2.52 1.28 2.22 1.71 2.07 1.88 1.84 1.87 1.71 1.62 1.27
SL_Ratio
nan nan nan nan nan nan nan nan nan nan nan nan nan nan nan nan nan nan nan nan 10.0 10.0 5.0 8.8 5.0 nan 8.1 7.5 7.5 7.4 7.9 7.9 9.1 7.7 nan nan nan nan nan nan nan nan nan
nan nan nan nan nan nan nan nan nan nan nan nan nan nan nan nan nan nan 9.6 10.0 10.0 10.4 nan 15.0 10.0 9.9 9.9 8.8 8.5 8.6 8.8 8.3 8.7 9.8 8.3 7.5 nan nan 7.5 5.0 nan nan nan
nan nan nan nan nan nan nan nan nan nan nan nan nan nan nan nan nan nan nan nan nan nan nan 12.5 11.3 10.0 10.1 10.0 9.7 9.9 9.7 9.1 8.5 9.0 8.6 7.9 nan nan 5.0 nan nan nan nan
nan nan nan nan nan nan nan nan nan nan nan nan nan nan nan nan nan nan nan nan nan nan nan nan 15.0 10.8 10.1 10.1 10.1 10.1 10.1 10.0 9.7 8.2 8.5 7.8 8.3 nan 7.5 5.5 4.9 nan 6.7
nan nan nan nan nan 10.0 10.0 10.0 10.0 10.0 nan nan nan 10.0 nan nan nan nan 10.0 10.0 10.2 12.5 11.9 11.0 10.0 4.4 nan nan 10.0 10.3 10.4 10.5 10.3 10.0 10.7 10.1 9.6 9.4 8.1 7.6 7.2 6.1 5.5
9.4 9.6 9.6 10.0 10.0 10.0 10.0 10.0 10.0 10.0 10.0 10.0 10.0 10.0 10.0 nan nan nan 11.6 10.4 10.1 11.5 11.3 10.0 10.0 6.7 9.0 nan nan nan nan 10.1 10.2 10.1 10.4 10.5 9.1 9.0 8.1 6.0 4.7 5.0 6.3
10.0 9.9 10.0 10.0 10.0 10.0 10.0 10.0 10.0 10.0 10.0 10.0 10.0 10.0 10.0 10.0 nan nan nan 10.1 10.1 11.1 11.7 10.4 9.6 7.5 3.7 9.1 nan nan nan nan nan 9.0 10.3 10.0 9.6 9.1 6.3 5.2 4.7 3.8 4.0
10.0 9.9 10.0 10.0 9.9 10.0 10.0 10.0 10.1 10.2 10.3 10.3 10.1 10.1 10.1 10.0 nan nan nan 10.2 10.2 11.3 11.1 10.5 10.3 9.8 9.2 9.2 9.7 10.0 9.8 9.8 9.4 9.4 9.2 9.4 9.3 8.8 7.1 7.4 6.5 5.9 6.2
10.0 10.0 10.0 10.0 10.0 10.2 10.2 10.6 10.8 10.3 10.4 10.1 10.0 10.0 10.0 10.0 nan nan 10.0 10.1 10.1 10.0 9.6 9.6 9.6 10.0 nan nan 9.9 10.1 10.0 9.9 nan nan nan nan nan nan nan 7.9 7.8 7.9 7.7
10.0 10.2 10.2 10.2 10.2 10.3 10.5 10.4 10.2 10.1 10.1 10.0 10.0 10.0 8.3 10.0 nan nan nan 10.0 10.0 10.0 10.0 9.5 3.4 9.6 nan nan 9.8 10.2 10.3 10.0 9.7 9.6 9.2 8.9 nan nan nan 7.5 7.4 8.4 7.2
10.1 10.3 10.4 10.5 10.2 10.4 10.2 10.2 10.1 10.2 10.3 10.2 10.1 10.1 10.0 9.4 10.0 nan nan 9.9 10.0 10.0 10.0 10.0 9.9 nan nan nan nan 10.0 10.0 9.9 10.0 9.8 9.1 8.6 8.4 8.3 8.0 7.9 7.6 7.0 7.0
10.4 10.6 10.5 10.4 10.3 10.3 10.1 10.4 10.2 10.2 10.2 10.2 10.1 10.0 10.0 10.0 nan nan nan nan nan 9.9 10.1 10.0 10.1 nan nan nan 8.8 nan nan 8.2 9.7 9.5 9.0 8.9 8.4 8.3 8.1 8.0 7.9 7.6 7.4
10.3 10.2 10.2 10.3 10.3 10.2 10.1 10.2 10.1 10.1 10.0 10.1 9.9 9.9 10.0 9.9 9.9 nan nan nan nan 9.9 10.0 10.1 nan nan nan nan nan nan 3.0 9.4 9.4 9.7 9.8 8.8 8.5 8.2 8.0 7.7 7.8 7.9 7.7
10.1 10.3 10.7 10.5 9.8 10.6 10.2 10.1 9.9 10.0 10.0 9.9 9.9 9.9 10.0 10.0 10.0 10.0 9.9 10.0 7.8 10.0 nan 10.0 nan 10.1 nan nan 9.2 10.1 10.0 9.5 9.6 9.9 8.8 8.3 8.1 8.1 8.1 7.9 8.0 7.9 7.8
10.6 11.1 10.8 10.4 10.3 10.5 10.4 10.1 10.1 10.1 10.1 9.9 9.8 9.9 9.9 9.9 10.0 10.0 9.9 9.9 10.0 10.1 8.6 9.9 10.0 10.1 10.1 10.1 10.0 10.1 10.2 9.6 9.7 9.1 9.0 8.6 8.3 8.1 7.9 8.0 7.9 7.9 8.0
11.2 10.6 10.4 10.3 10.2 10.2 10.3 10.5 nan nan nan nan nan 10.0 9.9 nan nan nan nan nan nan nan 9.5 9.9 10.2 10.3 10.4 10.4 10.3 10.4 10.2 9.5 9.7 9.4 9.0 8.7 8.7 8.5 8.3 8.0 7.8 7.9 8.2
10.3 10.5 10.3 9.7 10.5 10.4 10.4 10.3 10.3 10.2 nan nan nan nan nan nan nan nan nan nan nan nan 9.7 10.0 10.1 10.3 10.6 11.0 10.8 11.1 11.2 10.8 11.2 10.2 9.8 9.3 9.1 8.6 8.1 8.0 7.9 7.9 8.0
10.5 3.0 10.5 10.5 10.5 10.3 10.2 10.1 10.0 10.0 10.1 10.2 nan nan nan nan nan nan nan nan 9.8 nan 9.8 9.9 10.0 10.1 10.5 10.8 11.1 11.5 11.5 11.3 11.2 10.6 10.5 9.9 9.4 9.1 8.7 8.4 8.1 7.9 7.9
10.4 10.4 10.4 10.3 10.3 10.1 10.1 10.2 10.2 10.2 10.2 10.2 10.2 10.2 6.5 nan nan nan nan 9.9 9.8 9.9 9.9 9.9 10.0 10.2 10.5 10.4 10.5 10.4 10.8 10.8 10.8 10.4 10.2 10.0 9.6 9.3 8.9 8.6 8.5 6.8 7.2
10.5 4.2 8.1 10.3 10.5 10.6 10.7 10.6 10.7 10.7 10.8 10.5 10.4 10.3 10.1 8.9 10.0 9.9 9.9 9.8 9.8 9.8 9.9 9.9 9.9 9.9 10.0 10.0 10.1 10.2 10.3 10.2 10.4 10.5 10.5 10.2 9.7 9.3 9.3 8.6 8.4 8.5 7.9
10.9 11.2 3.0 11.2 10.8 10.7 10.6 10.9 11.3 10.6 10.6 10.5 10.5 10.5 nan 10.1 10.0 9.9 9.8 9.9 9.8 9.8 9.9 9.9 9.9 9.8 9.7 9.7 9.8 9.9 10.0 10.4 10.2 10.3 10.3 10.3 10.0 9.4 9.1 9.2 8.5 8.2 8.0
11.3 11.1 11.1 11.0 11.6 11.5 11.0 11.5 11.3 11.2 11.2 11.1 11.5 10.7 nan 10.1 10.0 9.9 9.9 9.8 9.8 9.8 9.8 9.8 9.8 9.8 9.8 9.9 10.0 10.0 10.1 10.0 10.0 10.1 10.5 10.5 10.2 9.9 9.2 8.9 8.5 8.4 8.0
11.7 12.3 12.0 11.9 11.8 4.4 11.4 11.0 11.1 10.9 10.9 10.6 10.5 10.3 10.1 9.9 9.9 9.9 9.8 9.8 9.9 9.9 9.9 9.9 9.9 10.0 9.9 9.9 10.0 10.1 10.3 10.3 10.4 10.0 10.7 10.5 10.7 10.2 9.6 9.2 8.8 8.4 8.1
12.0 11.6 11.5 10.8 11.0 11.5 11.0 10.8 11.1 3.9 10.6 10.3 9.9 10.0 10.0 9.9 9.9 9.9 9.9 9.9 9.9 9.8 9.9 9.9 9.9 10.0 9.9 9.8 9.6 9.6 9.6 9.6 9.8 9.9 10.1 10.8 10.9 9.9 10.4 9.4 9.1 8.1 8.7
11.3 11.5 11.3 11.2 10.6 10.8 10.9 10.6 10.8 10.3 10.1 10.1 10.0 9.9 9.9 9.9 9.9 9.9 9.9 9.9 9.9 9.9 9.9 9.9 9.9 9.9 9.9 10.0 9.9 9.7 9.2 3.0 8.3 3.0 10.1 10.7 10.8 11.0 10.9 10.1 9.8 9.7 9.0
11.4 11.3 11.1 11.0 11.0 10.7 10.5 10.4 10.3 10.3 10.1 10.0 9.9 9.9 9.9 9.9 9.9 9.9 9.9 9.9 9.9 9.9 9.9 9.9 9.9 9.9 9.9 10.0 10.0 4.1 3.0 3.0 9.4 3.0 10.2 10.7 11.0 11.7 11.8 11.6 11.5 10.6 10.2